Powrót do katalogu

FENGYUN 1C DEB

LostPO
NORAD 37699·DEBRIS·🇨🇳 China

Wystrzelony May 10, 1999 z Taiyuan Satellite Launch Center

Loading…

Następne Przeloty (najbliższe 24 godziny)

TLE

NieaktualneSource: Space-Track

Epoka: Sep 13, 2022, 05:03 UTC

1 37699U 99025ELQ 22256.21097403  .00001795  00000-0  12842-2 0  9993
2 37699  97.9793 242.4199 0124715  21.6530  40.6275 13.94573712652917

Śledź FENGYUN 1C DEB w czasie rzeczywistym z AllMySat

Download on the App Store